Bellmunt





Hora UTC 16:35
Temperatura 22.7 ºC
Humitat 63.0 %
Pressió 1015.7 hPa
Pluja 0.0 mm
Velocitat vent 8.0 km/h
Direcció vent SE

Dades diàries 2020-07-05



Hora UTC (hivern +1h; estiu +2h)
Temperatura (ºC) Humitat (%) Pressió (hPa) Velocitat vent (km/h) Precipitació (mm)
Hora UTC Aire Humitat Pressió Vel. Dir. Vel. Max Dir. Intent. màx 5 min.
00:05 16.6 77.0 1020.3 8.0 NW 8.0 0.0
00:10 16.6 75.0 1020.2 8.0 NW 12.9 0.0
00:15 16.6 73.0 1020.1 8.0 NW 9.7 0.0
00:20 16.8 74.0 1020.0 6.4 NW 9.7 0.0
00:25 16.7 74.0 1020.0 6.4 NW 9.7 0.0
00:30 16.7 74.0 1020.0 6.4 NW 8.0 0.0
00:35 16.7 74.0 1019.9 6.4 NW 8.0 0.0
00:40 16.7 75.0 1019.9 8.0 NW 8.0 0.0
00:45 16.6 71.0 1019.8 8.0 WNW 9.7 0.0
00:50 16.7 68.0 1019.8 6.4 WNW 9.7 0.0
00:55 16.8 69.0 1019.8 6.4 NW 9.7 0.0
01:00 16.9 69.0 1019.6 8.0 NW 9.7 0.0
01:05 16.9 67.0 1019.6 11.3 WNW 12.9 0.0
01:10 17.1 69.0 1019.5 12.9 WNW 14.5 0.0
01:15 17.2 67.0 1019.6 11.3 WNW 14.5 0.0
01:20 17.3 69.0 1019.5 12.9 WNW 14.5 0.0
01:25 17.5 69.0 1019.5 12.9 WNW 14.5 0.0
01:30 17.6 69.0 1019.4 14.5 W 16.1 0.0
01:35 17.7 69.0 1019.3 14.5 WNW 16.1 0.0
01:40 17.8 68.0 1019.2 17.7 W 17.7 0.0
01:45 17.8 69.0 1019.1 16.1 W 17.7 0.0
01:50 17.9 68.0 1019.2 12.9 W 17.7 0.0
01:55 17.8 68.0 1019.1 11.3 WNW 14.5 0.0
02:00 17.8 68.0 1019.0 14.5 WNW 14.5 0.0
02:05 17.8 69.0 1018.9 16.1 W 17.7 0.0
02:10 17.9 69.0 1019.0 16.1 W 17.7 0.0
02:15 18.1 68.0 1018.9 14.5 W 17.7 0.0
02:20 18.1 68.0 1018.9 14.5 W 16.1 0.0
02:25 18.1 68.0 1018.8 12.9 W 14.5 0.0
02:30 18.1 68.0 1018.8 12.9 W 14.5 0.0
02:35 18.1 68.0 1018.8 14.5 W 14.5 0.0
02:40 18.2 68.0 1018.7 14.5 W 14.5 0.0
02:45 18.2 67.0 1018.7 14.5 W 16.1 0.0
02:50 18.1 67.0 1018.7 12.9 W 16.1 0.0
02:55 18.1 67.0 1018.6 14.5 W 16.1 0.0
02:55 18.1 67.0 1018.6 14.5 W 16.1 0.0
03:05 18.1 67.0 1018.6 14.5 W 16.1 0.0
03:10 18.1 67.0 1018.6 14.5 W 16.1 0.0
03:15 18.1 67.0 1018.6 14.5 W 16.1 0.0
03:20 18.1 66.0 1018.6 14.5 W 17.7 0.0
03:25 18.1 66.0 1018.5 12.9 W 17.7 0.0
03:30 18.1 65.0 1018.5 14.5 WSW 19.3 0.0
03:35 18.1 66.0 1018.7 9.7 W 19.3 0.0
03:40 18.0 66.0 1018.7 11.3 W 14.5 0.0
03:45 17.9 66.0 1018.7 12.9 W 14.5 0.0
03:50 17.9 67.0 1018.7 4.8 W 14.5 0.0
03:55 17.8 67.0 1018.8 9.7 W 12.9 0.0
04:00 17.8 66.0 1018.8 11.3 W 11.3 0.0
04:05 17.8 66.0 1018.7 11.3 W 12.9 0.0
04:10 17.8 66.0 1018.7 12.9 WSW 14.5 0.0
04:15 17.9 66.0 1018.8 9.7 W 14.5 0.0
04:20 17.8 67.0 1018.7 11.3 W 12.9 0.0
04:25 17.8 67.0 1018.7 11.3 W 12.9 0.0
04:30 17.8 66.0 1018.7 12.9 W 12.9 0.0
04:35 17.9 66.0 1018.7 9.7 W 12.9 0.0
04:40 18.0 66.0 1018.6 9.7 W 12.9 0.0
04:45 18.2 66.0 1018.5 11.3 W 11.3 0.0
04:50 18.3 66.0 1018.5 9.7 W 12.9 0.0
04:55 18.3 66.0 1018.6 11.3 W 12.9 0.0
05:00 18.3 65.0 1018.6 12.9 W 12.9 0.0
05:05 18.3 65.0 1018.6 9.7 WNW 12.9 0.0
05:10 18.4 65.0 1018.6 6.4 W 11.3 0.0
05:15 18.5 65.0 1018.6 6.4 W 11.3 0.0
05:20 18.7 64.0 1018.6 9.7 W 11.3 0.0
05:25 18.7 64.0 1018.6 4.8 W 11.3 0.0
05:30 18.8 64.0 1018.6 6.4 W 8.0 0.0
05:35 19.0 63.0 1018.6 4.8 W 6.4 0.0
05:40 19.2 63.0 1018.6 4.8 W 6.4 0.0
05:45 19.4 62.0 1018.6 4.8 W 6.4 0.0
05:50 19.5 62.0 1018.5 3.2 W 6.4 0.0
05:55 19.7 62.0 1018.6 1.6 W 4.8 0.0
06:00 19.8 62.0 1018.6 1.6 W 4.8 0.0
06:05 19.8 62.0 1018.6 1.6 W 4.8 0.0
06:10 19.8 61.0 1018.5 1.6 W 4.8 0.0
06:15 19.6 63.0 1018.7 0.0 W 6.4 0.0
06:20 19.6 63.0 1018.7 0.0 W 4.8 0.0
06:25 19.5 64.0 1018.6 0.0 W 3.2 0.0
06:30 19.2 64.0 1018.7 3.2 W 3.2 0.0
06:35 18.8 63.0 1018.7 1.6 W 4.8 0.0
06:40 18.7 63.0 1018.7 1.6 W 4.8 0.0
06:45 18.6 64.0 1018.6 0.0 SW 3.2 0.0
06:50 18.6 65.0 1018.7 0.0 SSW 3.2 0.0
06:55 18.6 65.0 1018.8 0.0 SSW 3.2 0.0
07:00 18.6 64.0 1018.8 1.6 SSW 3.2 0.0
07:05 18.5 64.0 1018.8 0.0 SSW 3.2 0.0
07:10 18.6 64.0 1019.0 0.0 SSW 3.2 0.0
07:15 18.6 66.0 1018.9 3.2 SSW 4.8 0.0
07:20 18.9 69.0 1019.0 1.6 S 4.8 0.0
07:25 19.2 68.0 1019.0 0.0 S 4.8 0.0
07:30 19.5 68.0 1019.0 1.6 SSE 3.2 0.0
07:35 19.5 65.0 1019.0 1.6 SSW 3.2 0.0
07:40 19.2 67.0 1019.1 1.6 SSW 4.8 0.0
07:45 19.2 68.0 1019.1 1.6 SSW 4.8 0.0
07:50 19.2 67.0 1019.1 3.2 SSW 4.8 0.0
07:55 19.2 64.0 1019.1 0.0 SSW 4.8 0.0
08:00 19.4 64.0 1019.1 0.0 SSW 3.2 0.0
08:05 19.6 66.0 1019.1 0.0 SSW 4.8 0.0
08:10 19.6 69.0 1019.1 3.2 SSW 4.8 0.0
08:15 19.4 71.0 1019.0 1.6 SSW 4.8 0.0
08:20 19.2 67.0 1019.1 1.6 SSW 4.8 0.0
08:25 19.3 67.0 1019.0 1.6 SW 4.8 0.0
08:30 19.6 70.0 1018.9 0.0 SSW 3.2 0.0
08:35 19.9 70.0 1018.9 0.0 SSW 3.2 0.0
08:40 19.9 70.0 1018.9 0.0 SSW 4.8 0.0
08:45 19.6 71.0 1018.8 3.2 SSW 4.8 0.0
08:50 19.6 68.0 1018.8 0.0 SSW 4.8 0.0
08:55 19.7 66.0 1018.7 0.0 SSW 4.8 0.0
09:00 19.9 69.0 1018.7 0.0 SSW 4.8 0.0
09:05 20.4 69.0 1018.7 0.0 S 3.2 0.0
09:10 20.7 71.0 1018.6 3.2 SSW 3.2 0.0
09:15 20.4 67.0 1018.7 0.0 SSW 4.8 0.0
09:20 20.1 67.0 1018.7 0.0 SSW 4.8 0.0
09:25 20.2 71.0 1018.7 1.6 SSW 4.8 0.0
09:30 20.2 70.0 1018.7 1.6 SW 4.8 0.0
09:35 20.3 70.0 1018.7 3.2 SSW 6.4 0.0
09:40 20.2 69.0 1018.6 4.8 SSW 9.7 0.0
09:45 19.9 69.0 1018.7 1.6 SW 9.7 0.0
09:50 19.6 70.0 1018.7 3.2 S 12.9 0.0
09:55 19.7 70.0 1018.7 1.6 SSW 12.9 0.0
10:00 19.4 69.0 1018.7 4.8 WSW 14.5 0.0
10:05 19.6 72.0 1018.7 0.0 W 14.5 0.0
10:10 20.2 70.0 1018.7 6.4 SW 8.0 0.0
10:15 20.6 70.0 1018.6 1.6 SW 8.0 0.0
10:20 20.4 68.0 1018.6 4.8 SSW 9.7 0.0
10:25 20.1 67.0 1018.6 4.8 SW 9.7 0.0
10:30 20.4 69.0 1018.5 9.7 S 12.9 0.0
10:35 20.2 69.0 1018.5 1.6 SW 11.3 0.0
10:40 20.3 70.0 1018.5 0.0 SSE 9.7 0.0
10:45 20.8 66.0 1018.5 3.2 SW 9.7 0.0
10:50 20.5 68.0 1018.4 4.8 WSW 11.3 0.0
10:55 21.0 69.0 1018.4 0.0 NNE 9.7 0.0
11:00 21.3 67.0 1018.4 6.4 S 9.7 0.0
11:05 20.9 66.0 1018.4 4.8 SW 9.7 0.0
11:10 20.9 67.0 1018.4 1.6 SW 8.0 0.0
11:10 21.1 67.0 1018.4 1.6 SSW 8.0 0.0
11:20 20.8 67.0 1018.3 6.4 SW 9.7 0.0
11:25 20.7 66.0 1018.3 9.7 SSW 11.3 0.0
11:30 20.8 68.0 1018.3 6.4 W 11.3 0.0
11:35 20.9 65.0 1018.2 6.4 WSW 12.9 0.0
11:40 21.1 64.0 1018.2 9.7 SW 16.1 0.0
11:45 21.2 63.0 1018.2 4.8 WSW 16.1 0.0
11:50 21.4 62.0 1018.2 1.6 WSW 12.9 0.0
11:55 21.8 64.0 1018.1 3.2 W 12.9 0.0
12:00 22.1 61.0 1018.1 0.0 W 11.3 0.0
12:05 22.2 60.0 1018.1 4.8 WSW 14.5 0.0
12:10 22.1 57.0 1018.1 4.8 WSW 14.5 0.0
12:15 22.0 55.0 1017.9 6.4 WSW 12.9 0.0
12:20 21.7 56.0 1017.9 8.0 SSW 12.9 0.0
12:25 21.9 59.0 1017.9 4.8 WSW 11.3 0.0
12:30 21.9 58.0 1017.8 4.8 W 12.9 0.0
12:35 21.9 55.0 1017.9 3.2 SW 12.9 0.0
12:40 21.9 56.0 1017.8 9.7 SW 11.3 0.0
12:45 21.8 53.0 1017.8 0.0 SSW 11.3 0.0
12:50 21.9 57.0 1017.8 3.2 SSW 9.7 0.0
12:55 21.9 60.0 1017.8 6.4 S 11.3 0.0
13:00 22.4 56.0 1017.7 6.4 SW 12.9 0.0
13:05 21.9 56.0 1017.6 4.8 SSW 14.5 0.0
13:10 21.7 59.0 1017.6 1.6 SSW 14.5 0.0
13:15 21.9 57.0 1017.4 0.0 SSW 9.7 0.0
13:20 22.1 59.0 1017.5 8.0 SSW 11.3 0.0
13:25 22.1 61.0 1017.5 6.4 WSW 11.3 0.0
13:30 22.2 58.0 1017.4 4.8 S 11.3 0.0
13:35 22.2 57.0 1017.3 0.0 WSW 12.9 0.0
13:40 22.2 60.0 1017.3 0.0 W 11.3 0.0
13:45 22.4 59.0 1017.3 1.6 SW 11.3 0.0
13:50 22.8 58.0 1017.2 0.0 WSW 9.7 0.0
13:55 22.6 58.0 1017.1 4.8 WSW 9.7 0.0
14:00 22.2 57.0 1017.1 1.6 WSW 9.7 0.0
14:05 22.4 57.0 1017.1 0.0 WSW 11.3 0.0
14:10 22.4 56.0 1017.0 3.2 WSW 8.0 0.0
14:15 22.6 57.0 1016.9 4.8 SSW 11.3 0.0
14:20 22.4 57.0 1016.9 0.0 SSW 14.5 0.0
14:25 22.7 59.0 1016.8 4.8 SSW 14.5 0.0
14:30 22.9 57.0 1016.8 0.0 SW 11.3 0.0
14:35 22.6 56.0 1016.8 0.0 SSW 8.0 0.0
14:40 22.8 59.0 1016.8 1.6 S 9.7 0.0
14:45 23.0 57.0 1016.7 1.6 SSW 9.7 0.0
14:50 22.9 56.0 1016.7 3.2 SSW 9.7 0.0
14:55 22.8 56.0 1016.7 0.0 S 6.4 0.0
15:00 23.0 60.0 1016.6 3.2 SSW 6.4 0.0
15:05 23.3 58.0 1016.6 8.0 SW 9.7 0.0
15:10 23.1 57.0 1016.5 3.2 SW 16.1 0.0
15:15 22.9 58.0 1016.5 0.0 SSE 16.1 0.0
15:20 23.1 58.0 1016.5 4.8 SW 9.7 0.0
15:25 23.3 62.0 1016.5 1.6 SW 8.0 0.0
15:30 23.5 57.0 1016.4 3.2 SSW 9.7 0.0
15:35 23.3 59.0 1016.3 1.6 SW 9.7 0.0
15:40 23.8 59.0 1016.1 4.8 WSW 6.4 0.0
15:45 23.9 59.0 1016.1 0.0 WSW 6.4 0.0
15:50 23.9 60.0 1016.1 4.8 WSW 8.0 0.0
15:55 23.6 58.0 1016.1 0.0 WSW 8.0 0.0
16:00 23.4 59.0 1016.0 0.0 S 6.4 0.0
16:05 23.6 60.0 1016.0 1.6 SSW 6.4 0.0
16:10 23.3 58.0 1015.9 3.2 SSE 6.4 0.0
16:15 23.3 58.0 1015.8 4.8 SSW 6.4 0.0
16:20 23.1 60.0 1015.7 0.0 SSW 11.3 0.0
16:25 22.9 61.0 1015.7 1.6 SW 8.0 0.0
16:30 22.8 61.0 1015.7 1.6 S 8.0 0.0
16:35 22.7 63.0 1015.7 8.0 SE 12.9 0.0
Màxima 24.0 77.0 1020.3 17.7 W 19.3 0.0
Mínima 15.5 53.0 1015.7
Total 0.0